Preview of NWS' New Version of Forecast
This preview is not operational and should not be used for support decisions.

Regional Weather Roundup (RWR)

Issued by National Weather Service (NWS)

                            
000
ASUS43 KTOP 181359
RWRKS 

WEATHER ROUNDUP FOR KANSAS
NATIONAL WEATHER SERVICE GOODLAND KS
900 AM CDT MON MAR 18 2019

NOTE:  "FAIR" INDICATES FEW OR NO CLOUDS BELOW 12,000 FEET WITH NO
SIGNIFICANT WEATHER AND/OR OBSTRUCTIONS TO VISIBILITY.

KSZ001>006-013>018-027>032-041>047-181500-
NORTHWEST KANSAS
  
CITY           SKY/WX    TMP DP  RH WIND       PRES   REMARKS
GOODLAND       MOSUNNY   27  23  85 NE5       30.35S                  
HAYS           SUNNY     33  29  85 NE12      30.41R WCI  24          
HILL CITY      SUNNY     30  27  88 NE7       30.43R                  
RUSSELL        SUNNY     33  31  92 NE12      30.40R WCI  24          
$$

KSZ061>065-074>080-084>089-181500-
SOUTHWEST KANSAS
  
CITY           SKY/WX    TMP DP  RH WIND       PRES   REMARKS
DODGE CITY     SUNNY     32  29  88 NE13      30.35R WCI  22          
GARDEN CITY    MOSUNNY   31  28  89 NE17      30.33S WCI  19          
GREAT BEND     MOSUNNY   37  26  64 E14       30.39R WCI  28          
LIBERAL        SUNNY     36  29  75 NE13      30.32R WCI  27          
$$

KSZ066>073-081>083-090>101-181500-
SOUTHEAST KANSAS
  
CITY           SKY/WX    TMP DP  RH WIND       PRES   REMARKS
CHANUTE        PTSUNNY   43  29  57 NE9       30.42R                  
COFFEYVILLE    SUNNY     44  32  62 E6        30.39R                  
HUTCHINSON     SUNNY     39  28  64 E9        30.40R                  
NEWTON         MOSUNNY   38  28  67 E10       30.41R WCI  31          
PARSONS        SUNNY     44  31  60 E7        30.41R                  
WICHITA INTL   MOSUNNY   42  25  50 NE14      30.39R                  
WICHITA JABRA  MOSUNNY   39  28  64 NE8       30.40R                  
WICHITA MCCONL SUNNY     40  25  55 E15       30.38  WCI  32          
WINFIELD       SUNNY     42  29  59 NE10      30.39R                  
$$

KSZ007>012-019>026-033>040-048>060-102>105-181500-
NORTHEAST KANSAS
  
CITY           SKY/WX    TMP DP  RH WIND       PRES   REMARKS
CONCORDIA      SUNNY     33  28  81 NE7       30.44S                  
EMPORIA        SUNNY     38  30  73 NE8       30.42R                  
LAWRENCE       MOSUNNY   40  29  64 NE8       30.45R                  
MANHATTAN      MOSUNNY   39  31  72 NE9       30.45R                  
OLATHE IND     PTSUNNY   40  32  73 NE8       30.44R                  
OLATHE EXE     CLOUDY    39  28  64 NE9       30.44R                  
SALINA         SUNNY     37  30  75 NE7       30.44R                  
TOPEKA BILLARD SUNNY     39  30  70 N6        30.45R                  
TOPEKA FORBES  MOSUNNY   39  30  70 NE6       30.44R                  
$$